Theta_e
316 316 315 313 313 312 313 313 313 313 313 314 315 316 316 315 316 314 309 311 312 320 322 313 312 311 312 312 315 318 307 304 306 305 305 310 309 316 319 316 317 319 319 321 323
315 315 315 314 313 313 313 313 313 313 313 313 314 315 314 314 313 312 319 316 318 320 310 307 308 309 308 308 312 310 306 307 312 312 309 311 311 314 313 314 316 317 321 321 322
314 315 314 314 313 312 312 312 313 313 313 313 313 314 314 315 312 308 323 321 320 322 309 310 310 309 305 308 308 309 305 311 312 314 314 312 311 314 311 310 316 314 316 318 320
314 314 313 313 312 312 312 312 312 313 312 312 313 313 315 315 299 314 326 323 324 316 310 307 307 305 304 303 308 304 309 310 312 314 313 312 313 310 311 313 313 315 316 317 318
312 312 312 312 312 312 312 312 311 311 311 311 312 313 315 310 308 322 326 325 317 311 310 306 304 304 302 304 305 304 306 308 311 312 313 312 309 308 308 312 315 315 315 315 316
312 312 311 312 312 312 313 312 312 311 311 311 312 314 312 303 314 319 318 315 313 312 309 309 305 306 304 303 302 305 305 305 307 307 308 306 307 307 308 310 315 315 313 314 314
312 311 311 311 311 312 313 314 312 312 312 313 313 316 309 306 316 318 317 313 313 311 307 309 308 305 305 302 305 303 300 303 303 304 302 305 301 302 308 308 307 311 313 314 313
312 312 310 310 311 312 313 313 313 312 312 314 315 316 304 312 319 316 317 313 314 313 311 311 310 306 304 305 301 299 301 296 303 303 303 301 300 304 307 305 304 306 308 311 313
311 311 310 310 311 313 313 313 314 313 314 315 316 313 303 317 311 311 314 307 308 309 311 309 308 304 303 298 297 298 294 296 298 301 301 300 299 305 306 305 303 304 306 308 309
310 309 309 310 312 312 313 313 315 316 316 317 315 308 309 305 310 309 311 309 305 306 304 304 303 300 299 297 290 293 293 294 295 299 300 299 298 302 305 304 303 304 305 305 307
310 309 310 311 312 312 314 315 310 309 311 305 304 305 306 310 312 308 308 306 306 304 299 301 298 295 297 298 298 296 295 294 296 299 298 298 298 301 303 304 303 303 304 306 307
309 310 310 311 311 312 314 309 307 309 302 307 306 306 309 310 302 305 309 302 301 297 299 297 294 298 298 298 297 296 294 294 297 299 298 297 297 301 302 303 305 305 304 306 307
309 310 311 311 312 313 312 309 315 311 303 302 305 305 305 309 301 302 305 303 299 296 296 295 296 299 297 296 295 295 294 294 294 297 299 297 295 298 301 303 305 306 307 308 307
309 309 310 310 310 315 311 314 315 313 299 297 300 304 306 306 300 306 307 303 299 295 296 296 298 296 295 294 296 293 297 295 293 293 289 296 287 295 298 299 301 304 306 307 308
309 310 310 309 314 311 311 316 316 312 288 298 299 307 304 300 301 302 307 303 298 297 297 294 295 295 294 295 297 294 297 295 295 293 292 292 289 294 297 296 300 302 304 307 308
308 309 310 312 315 313 316 316 314 298 286 295 300 298 299 301 300 302 302 305 303 298 299 297 300 297 297 298 298 298 296 296 296 293 286 292 290 292 295 297 299 302 304 305 308
308 308 310 314 312 316 316 313 298 290 298 294 295 298 298 297 298 299 298 298 295 291 292 296 296 298 300 296 298 297 293 287 285 286 286 292 289 293 298 299 300 300 301 304 308
306 307 312 317 319 316 314 304 291 294 294 298 296 297 295 297 298 297 296 295 298 297 293 290 288 295 299 296 294 294 293 287 280 282 287 292 286 293 299 300 301 302 304 306 307
304 317 318 319 317 315 307 295 294 294 296 294 296 293 293 295 295 295 296 295 297 298 292 291 290 297 298 298 297 293 290 295 289 289 286 289 292 296 299 299 300 301 304 305 307
312 314 314 315 316 312 302 294 296 298 299 297 291 293 290 292 292 293 293 297 296 299 300 295 289 296 297 298 298 296 297 288 289 281 281 287 288 291 295 296 299 300 301 304 307
313 308 312 315 315 306 297 296 297 301 300 296 294 293 294 293 294 293 292 295 298 298 300 298 294 293 296 294 292 293 291 292 292 291 284 283 289 298 297 298 299 301 304 305 306
308 301 313 315 302 302 296 296 295 297 300 299 299 297 295 295 294 294 293 295 298 299 295 298 294 289 291 296 297 296 294 294 288 286 289 288 288 300 300 301 301 303 305 306 308
300 303 313 311 296 298 298 296 297 296 297 297 296 298 298 296 292 294 295 298 299 298 296 297 292 287 288 293 295 293 294 295 295 293 288 286 289 300 301 302 303 303 305 306 308
301 298 303 304 301 295 294 293 294 299 298 299 298 299 297 295 297 294 294 297 299 299 300 299 294 290 285 288 292 289 291 293 292 288 289 289 291 296 299 300 302 304 306 306 307
301 298 297 296 298 295 295 294 292 292 296 298 295 295 294 292 293 293 295 295 297 299 298 297 291 292 291 292 292 291 291 292 290 291 287 291 292 296 299 301 303 304 305 305 306
299 296 300 295 296 294 292 292 291 292 293 292 293 294 295 292 293 291 294 293 292 296 295 298 289 291 289 291 291 289 292 292 292 293 293 293 293 299 301 303 302 304 305 304 305
300 302 297 295 293 292 292 291 291 292 293 294 294 294 292 293 296 297 297 297 296 294 293 293 290 288 285 290 289 285 290 291 293 295 294 290 296 301 300 300 302 304 305 304 305
Wind_Speed
16 15 14 14 13 13 13 13 14 12 13 13 12 12 12 14 17 14 12 2 1 2 7 5 7 9 10 14 12 14 13 16 19 14 11 9 16 18 13 12 10 6 6 12 14
17 17 15 15 15 14 14 14 14 13 12 12 12 12 13 13 15 11 1 5 6 5 10 11 10 11 12 15 12 15 16 24 18 7 9 10 9 20 12 17 14 10 6 11 13
17 17 16 15 16 16 15 15 14 13 12 11 11 11 12 13 9 5 6 8 8 9 4 4 4 11 16 12 18 18 21 18 18 12 14 11 8 9 13 20 13 12 14 13 12
18 18 18 17 16 17 16 15 14 13 11 10 10 11 11 8 1 6 8 8 8 7 7 7 10 13 14 15 18 20 17 20 12 15 15 14 11 9 11 10 8 12 16 14 11
19 18 18 18 17 17 15 14 13 12 10 9 9 9 10 8 4 9 10 10 9 6 3 5 10 13 15 11 10 17 21 13 16 14 14 16 15 15 9 11 11 14 14 12 8
18 19 19 19 18 16 15 13 12 11 9 8 7 9 7 6 4 5 6 6 3 4 2 2 3 7 9 9 12 6 16 12 12 13 14 15 16 8 8 7 16 17 17 11 6
17 18 19 19 18 16 15 13 11 11 8 7 5 7 7 5 3 4 6 3 1 2 2 2 2 7 1 8 7 8 12 16 16 15 13 7 16 19 13 7 10 16 17 14 8
17 17 19 19 17 17 16 14 11 9 8 6 5 6 4 4 1 6 6 6 5 3 5 2 3 4 8 2 6 12 16 17 18 14 11 8 22 5 6 5 6 8 9 10 10
18 17 18 17 17 17 16 16 7 6 6 6 7 6 6 8 7 2 7 3 5 3 4 1 6 6 6 12 12 14 16 16 12 5 7 14 17 16 6 5 3 3 6 5 6
19 19 17 16 16 15 15 6 9 12 7 6 5 7 5 5 1 1 3 5 2 5 7 9 7 10 10 10 13 13 12 8 11 9 9 12 12 9 10 9 8 8 8 7 7
21 18 16 16 14 11 8 6 7 7 7 6 3 6 1 3 3 6 4 7 5 6 10 6 10 11 8 6 9 8 8 9 4 1 10 14 14 11 14 15 14 13 13 10 9
20 19 17 16 14 9 6 4 7 7 6 4 6 7 5 3 4 8 5 7 7 8 5 9 13 0 4 6 9 9 9 9 5 6 8 14 17 16 16 17 19 19 18 14 9
19 18 18 15 12 5 5 6 7 3 7 3 2 4 2 6 3 5 9 5 8 8 8 13 3 4 7 7 10 10 10 5 10 6 14 17 21 23 16 10 11 12 14 9 7
20 18 15 16 4 2 2 7 7 4 7 7 6 5 6 4 4 3 6 6 6 6 3 7 2 10 8 9 8 12 8 6 8 10 10 4 8 5 9 10 9 9 9 10 7
20 17 13 9 4 3 6 8 1 5 5 5 5 4 1 8 6 7 4 8 13 6 7 5 7 11 10 11 8 10 2 8 10 13 15 16 10 9 5 8 9 7 6 7 4
20 16 9 5 3 3 6 5 5 8 2 5 2 2 7 7 5 3 7 8 5 10 12 13 2 7 9 2 7 2 9 13 13 13 13 19 10 9 10 9 8 5 6 3 1
22 14 6 3 4 5 5 5 6 7 3 3 3 4 7 9 8 7 10 13 12 12 15 14 13 6 8 12 9 11 11 11 10 11 8 7 7 12 8 3 4 4 3 3 4
22 8 6 3 4 5 5 6 7 3 3 2 4 10 12 5 10 8 10 14 11 16 14 11 10 14 11 13 11 6 8 10 8 8 6 12 8 4 5 2 3 5 5 3 5
19 4 4 1 4 5 7 6 4 1 2 4 9 10 6 6 6 7 11 14 9 10 15 14 14 5 6 5 9 5 11 6 11 15 13 11 6 9 9 8 6 3 5 8 7
5 4 3 7 3 6 7 6 4 3 4 5 8 4 6 2 7 5 8 0 7 7 6 8 13 10 6 7 9 12 5 7 10 10 16 9 9 4 11 4 4 5 5 8 11
4 4 6 3 4 6 7 3 5 5 5 7 8 9 9 10 8 11 5 4 6 6 7 9 9 13 7 13 16 9 13 10 8 7 8 9 2 10 2 2 4 7 11 13 14
4 3 4 1 5 3 6 2 3 9 8 10 8 13 14 12 12 12 11 7 0 7 11 6 7 12 15 10 5 13 16 14 11 12 10 12 13 5 3 2 6 13 16 14 13
5 3 3 4 4 3 4 10 6 8 8 4 7 6 4 10 8 9 10 5 8 10 6 4 9 11 14 8 8 11 15 15 15 16 16 13 6 9 7 12 15 15 16 15 14
5 4 2 2 2 6 8 6 5 2 10 7 10 9 13 14 13 9 8 6 4 10 4 5 15 18 15 16 6 7 8 11 15 13 15 21 21 19 19 20 17 14 16 17 15
4 4 3 5 1 8 6 7 10 6 4 7 7 8 9 10 12 15 15 11 9 11 13 13 19 18 19 18 18 18 20 21 22 22 23 23 26 22 21 20 17 14 16 17 17
5 5 1 7 6 7 2 6 8 6 5 7 9 13 7 14 14 18 14 15 16 12 14 13 16 18 21 20 21 20 23 25 26 26 27 28 30 24 24 19 12 15 16 19 19
2 1 4 2 4 6 4 4 7 7 7 8 11 10 13 15 14 15 16 15 14 12 11 12 10 11 16 17 12 13 22 23 23 25 24 25 22 16 10 12 13 15 18 22 22
Wind_Direction
338 335 334 328 321 318 315 316 315 313 311 312 314 314 314 315 299 257 264 339 49 340 274 237 216 203 215 227 222 229 236 238 228 233 226 197 214 205 258 269 290 322 318 337 332
337 333 333 329 324 318 316 315 311 308 308 311 314 314 315 316 291 268 101 139 230 283 202 216 201 192 205 216 209 217 228 239 239 232 238 193 206 187 211 252 278 282 278 331 337
334 333 332 328 325 320 318 315 309 305 305 309 313 313 311 302 269 57 147 182 216 236 241 233 224 208 227 224 215 223 243 237 236 228 244 239 203 151 226 244 267 330 320 325 329
335 336 334 332 325 320 317 314 309 305 305 305 307 310 303 265 314 66 130 173 202 239 225 197 208 210 223 215 226 242 238 249 231 224 233 235 243 225 220 228 312 308 311 308 319
335 335 331 328 324 320 317 315 310 309 304 298 300 311 277 218 96 114 153 169 190 210 242 214 217 226 230 228 222 234 250 236 241 236 242 253 235 249 263 247 267 293 302 313 308
335 333 331 328 324 322 316 312 306 304 299 291 293 292 257 223 71 151 168 177 230 247 113 229 232 240 261 232 231 258 246 232 237 230 233 243 257 254 239 242 213 254 274 282 305
334 333 332 329 325 322 315 305 298 292 285 279 277 273 258 51 108 132 191 239 254 292 256 125 346 220 224 222 232 239 244 225 234 242 242 252 255 234 252 240 249 249 255 249 272
333 332 333 331 327 324 320 312 293 271 260 249 242 252 274 141 210 237 208 239 221 265 273 262 290 300 256 20 212 237 237 248 229 219 228 215 247 157 173 205 233 266 255 252 249
333 333 335 332 330 327 325 313 265 214 216 218 222 251 138 140 211 109 207 251 153 181 178 149 252 285 204 235 231 215 254 219 219 207 241 220 245 183 176 249 264 277 251 226 213
333 333 332 330 330 330 324 314 128 156 189 213 258 239 210 146 122 198 172 237 215 184 189 222 231 237 221 227 241 238 222 229 254 162 235 231 245 188 223 244 253 270 264 245 242
335 332 330 326 329 329 296 211 211 178 205 315 351 309 71 337 233 204 189 196 215 226 233 198 246 225 240 243 307 287 269 264 230 210 269 254 255 246 245 249 237 235 245 244 223
337 330 327 325 324 321 260 23 35 332 298 221 265 269 266 280 250 213 201 220 214 257 210 218 238 172 263 245 235 238 243 238 268 269 283 275 269 269 259 252 250 244 234 226 200
336 330 323 318 312 258 16 42 329 272 264 119 228 255 209 222 271 202 212 223 248 255 237 262 42 129 229 193 221 224 257 259 276 314 272 267 279 252 239 239 243 241 240 205 209
335 330 324 314 271 356 108 351 328 213 264 133 174 141 186 248 229 215 228 246 221 293 229 262 89 217 225 246 244 252 201 267 272 274 278 146 291 230 220 244 200 187 182 196 161
335 328 322 314 344 273 5 332 358 225 272 119 132 74 218 258 356 159 208 224 259 215 240 103 190 203 246 260 212 282 190 262 281 271 279 262 245 244 179 187 166 165 163 159 145
335 326 314 220 226 16 311 300 227 233 231 168 196 230 263 209 241 284 226 231 297 255 233 266 227 263 279 203 232 94 239 239 242 256 246 241 222 210 186 202 150 133 134 131 280
333 320 250 300 15 330 300 219 237 253 107 163 232 261 284 272 271 255 254 224 232 225 233 229 227 215 234 216 198 229 245 267 231 200 244 110 231 266 142 166 206 284 251 254 271
327 302 184 294 312 296 241 226 258 69 254 86 276 281 265 300 251 270 263 252 223 261 269 276 244 197 184 234 291 235 298 280 276 275 281 156 243 123 139 146 323 292 276 248 238
314 197 212 99 283 265 248 238 294 324 356 280 289 266 254 232 265 272 253 274 274 214 250 265 240 141 238 229 249 199 239 337 291 268 259 246 199 211 215 222 185 204 220 250 263
300 231 147 338 248 246 250 265 269 222 274 251 272 234 266 247 266 242 273 339 244 244 252 286 271 234 170 248 219 261 322 222 205 267 252 232 225 204 181 134 150 222 276 295 294
250 235 77 347 226 238 254 295 274 256 253 257 262 256 263 284 279 274 272 264 250 210 259 284 250 272 195 232 256 198 225 232 293 294 276 271 260 102 193 259 281 293 306 297 288
303 241 64 271 251 256 266 336 8 268 247 254 263 264 270 271 271 262 263 251 54 263 239 247 288 276 271 305 296 284 279 239 233 229 226 276 281 120 219 273 306 291 304 305 294
337 319 94 289 288 296 313 279 259 267 259 258 250 247 279 269 272 249 263 271 277 250 252 214 238 265 238 208 211 243 241 249 260 269 266 261 221 161 214 253 317 306 311 301 292
307 312 124 62 34 318 326 286 268 224 272 272 272 272 267 259 251 262 255 234 246 268 30 289 267 265 271 298 182 251 236 234 242 246 253 249 268 270 276 287 297 300 309 304 291
359 53 11 312 324 325 299 299 295 289 254 273 251 261 288 273 266 262 266 275 274 256 256 241 258 262 262 272 279 282 271 259 247 244 250 268 270 276 279 284 292 301 295 305 293
339 341 243 288 288 283 281 287 305 311 275 280 268 297 277 274 280 290 296 281 277 277 254 246 255 269 269 269 268 260 263 260 258 259 260 264 270 274 277 278 279 270 293 305 303
12 139 277 255 264 286 328 313 310 310 277 276 286 293 282 290 297 291 286 277 267 259 260 256 260 262 257 260 285 268 255 254 255 252 252 256 268 299 282 260 282 298 298 301 296